Location: Musselshell
(46.5176°N, 108.0911°W)
Time: 09:04:09
(UTC+00:00)

XW-2A - Visible Passes

Search period start: 27 June 2022 00:00
Search period end: 07 July 2022 00:00
Orbit: 398 x 413 km, 97.2° (Epoch: 27 June)

Date Brightness Start Highest point End Pass type
(mag) Time Alt. Az. Time Alt. Az. Time Alt. Az.
27 Jun ? 04:17:05 10° S 04:20:09 58° W 04:23:14 10° NNW visible
28 Jun ? 05:01:40 10° SW 05:03:38 16° W 05:05:36 10° NW visible
29 Jun ? 04:11:45 10° S 04:14:50 71° WSW 04:17:57 10° NNW visible
30 Jun ? 04:55:59 10° SW 04:58:12 18° W 05:00:26 10° NW visible
01 Jul ? 04:06:17 10° SSE 04:09:23 86° WSW 04:12:30 10° NNW visible
02 Jul ? 04:50:12 10° SSW 04:52:39 21° W 04:55:06 10° NW visible
03 Jul ? 04:00:42 10° SSE 04:03:48 78° ENE 04:06:54 10° N visible
04 Jul ? 04:44:21 10° SSW 04:46:57 25° W 04:49:35 10° NW visible
05 Jul ? 03:55:01 10° SSE 03:58:04 63° ENE 04:01:09 10° N visible
06 Jul ? 04:38:22 10° SSW 04:41:07 29° W 04:43:55 10° NNW visible
